Flag for Germany Weather past 2 weeks in Schwedt/Oder, Brandenburg, Germany

Now
48 °F

Clear.


Feels Like: 47 °F
Forecast: 45 / 56 °F
Wind: 3 mph from Northwest

Location: Szczecin Airport

Current Time: May 26, 2015 at 4:01:20 AM

Latest Report: May 26, 2015 at 3:30 AM


Visibility: 10 mi

Pressure: 29.89 "Hg

Humidity: 94%

Dew point: 46 °F

Location of Schwedt/OderLocation

Historic Weather in Schwedt/Oder — Graph

°F

Schwedt/Oder temperature yesterday

Maximum temperature yesterday: 68 °F (at 2:30 PM)
Minimum temperature yesterday: 46 °F (at 2:30 AM)
Average temperature yesterday: 56 °F

Past Weeks' High & Low Weather Summary

 TemperatureHumidityPressure
High77 °F (May 12, 4:00 PM)100% (May 11, 3:30 AM)30.39 "Hg (May 11, 3:30 AM)
Low34 °F (May 11, 4:30 AM)34% (May 11, 3:00 PM)29.56 "Hg (May 19, 4:30 AM)
Average53 °F70%30.00 "Hg
* Reported May 11 3:00 AM — May 26 3:00 AM, Schwedt/Oder, Weather by CustomWeather, © 2015

Note: Actual official high and low records may vary slightly from our data, if they occured in-between our weather recording intervals... More about our weather records

Advertising

Schwedt/Oder weather history for previous 24 hours

 ConditionsComfort  
Time TempWeatherWind HumidityBarometerVisibility
3:00 AM
Tue, May 26
48 °FPassing clouds.3 mph100%29.89 "HgN/A
2:30 AM50 °FPassing clouds.2 mph50%29.89 "HgN/A
2:00 AM50 °FPassing clouds.3 mph94%29.89 "HgN/A
1:30 AM50 °FPassing clouds.6 mph94%29.86 "HgN/A
1:00 AM50 °FPassing clouds.5 mph94%29.89 "HgN/A
12:30 AM52 °FPassing clouds.5 mph94%29.89 "HgN/A
12:00 AM52 °FPassing clouds.2 mph94%29.89 "Hg5 mi
11:30 PM
Mon, May 25
52 °FPassing clouds.2 mph94%29.89 "Hg4 mi
11:00 PM52 °FPassing clouds.2 mph94%29.89 "HgN/A
10:30 PM52 °FSprinkles. Passing clouds.2 mph100%29.89 "HgN/A
10:00 PM52 °FPassing clouds.2 mph94%29.89 "HgN/A
9:30 PM52 °FPassing clouds.2 mph94%29.86 "HgN/A
9:00 PM54 °FSprinkles. Scattered clouds.3 mph94%29.86 "Hg5 mi
8:30 PM54 °FSprinkles. Scattered clouds.5 mph88%29.86 "HgN/A
8:00 PM54 °FSprinkles. Scattered clouds.5 mph94%29.86 "Hg5 mi
7:30 PM55 °FSprinkles. Partly sunny.6 mph77%29.86 "Hg5 mi
7:00 PM59 °FSprinkles. Scattered clouds.8 mph68%29.83 "HgN/A
6:30 PM61 °FScattered clouds.8 mph59%29.83 "HgN/A
6:00 PM63 °FScattered clouds.9 mph52%29.83 "HgN/A
5:30 PM66 °FScattered clouds.2 mph52%29.83 "HgN/A
5:00 PM66 °FScattered clouds.3 mph52%29.83 "HgN/A
4:30 PM66 °FPassing clouds.3 mph46%29.83 "HgN/A
4:00 PM68 °FPassing clouds.6 mph43%29.83 "HgN/A
3:30 PM68 °FPassing clouds.8 mph46%29.83 "HgN/A
3:00 PM66 °FPassing clouds.6 mph49%29.83 "HgN/A
2:30 PM68 °FPassing clouds.7 mph46%29.86 "HgN/A
2:00 PM66 °FPassing clouds.6 mph52%29.86 "HgN/A
1:30 PM64 °FPassing clouds.6 mph56%29.86 "HgN/A
1:00 PM61 °FSunny.6 mph63%29.89 "Hg10 mi
12:30 PM61 °FSunny.5 mph63%29.89 "Hg10 mi
12:00 PM59 °FPassing clouds.3 mph59%29.89 "HgN/A
11:30 AM59 °FSunny.5 mph59%29.89 "Hg10 mi
11:00 AM59 °FSunny.2 mph63%29.92 "Hg10 mi
10:30 AM59 °FSunny.3 mph63%29.92 "Hg10 mi
10:00 AM59 °FSunny.6 mph59%29.92 "Hg10 mi
9:30 AM59 °FPassing clouds.5 mph63%29.92 "HgN/A
9:00 AM59 °FPassing clouds.6 mph63%29.92 "HgN/A
8:30 AM57 °FPassing clouds.6 mph67%29.92 "HgN/A
8:00 AM55 °FPassing clouds.5 mph67%29.92 "HgN/A
7:30 AM54 °FSunny.3 mph77%29.92 "Hg10 mi
7:00 AM52 °FSunny.5 mph77%29.95 "Hg10 mi
6:30 AM50 °FSunny.5 mph82%29.95 "Hg10 mi
6:00 AM50 °FSunny.5 mph82%29.95 "Hg10 mi
5:30 AM50 °FClear.6 mph88%29.95 "Hg10 mi
5:00 AM50 °FClear.8 mph82%29.95 "Hg10 mi
4:30 AM48 °FClear.6 mph87%29.95 "Hg10 mi
4:00 AM46 °FClear.5 mph93%29.95 "Hg10 mi
Weather by CustomWeather, © 2015

See weather overviewHow to use our weather pages